When you browse on this site, cookies collect data to enhance your experience and personalize the content and advertising you see.
Visit our Privacy Policy to learn more. By continuing to use the site, you agree to this use of cookies and data.

Hourly Weather Neuchatel

Today, 9 July, Thursday

Time Temperature Precipitation Wind Pressure Humidity
00:00 +16°C° 0 mm 0 mps 726 mmHg 85%
01:00 +16°C° 0 mm 0 mps 725 mmHg 84%
02:00 +16°C° 0 mm 0 mps 725 mmHg 84%
03:00 +15°C° 0 mm 0 mps 725 mmHg 83%
04:00 +17°C° 0 mm 0 mps 725 mmHg 81%
05:00 +18°C° 0 mm 0 mps 725 mmHg 78%
06:00 +19°C° 0 mm 0 mps 725 mmHg 76%
07:00 +23°C° 0 mm 1 mps 725 mmHg 69%
08:00 +25°C° 0 mm 1 mps 725 mmHg 62%
09:00 +27°C° 0 mm 1 mps 726 mmHg 56%
10:00 +28°C° 0 mm 1 mps 725 mmHg 53%
11:00 +29°C° 0 mm 1 mps 725 mmHg 50%
12:00 +30°C° 0 mm 2 mps 725 mmHg 47%
13:00 +30°C° 0 mm 2 mps 725 mmHg 47%
14:00 +30°C° 0 mm 2 mps 725 mmHg 47%
15:00 +30°C° 0 mm 2 mps 724 mmHg 48%
16:00 +29°C° 0 mm 2 mps 724 mmHg 56%
17:00 +28°C° 0 mm 2 mps 724 mmHg 64%
18:00 +27°C° 0 mm 1 mps 724 mmHg 72%
19:00 +25°C° 0 mm 1 mps 724 mmHg 73%
20:00 +23°C° 0 mm 1 mps 724 mmHg 73%
21:00 +22°C° 0 mm 1 mps 724 mmHg 73%
22:00 +21°C° 0 mm 1 mps 724 mmHg 73%
23:00 +21°C° 0 mm 1 mps 724 mmHg 72%

Tomorrow, 10 July, Friday

Time Temperature Precipitation Wind Pressure Humidity
00:00 +20°C° 0 mm 1 mps 724 mmHg 72%
01:00 +20°C° 0 mm 1 mps 723 mmHg 74%
02:00 +20°C° 0 mm 1 mps 723 mmHg 76%
03:00 +20°C° 0 mm 1 mps 723 mmHg 78%
04:00 +21°C° 0.1 mm 1 mps 723 mmHg 78%
05:00 +21°C° 0.1 mm 1 mps 723 mmHg 78%
06:00 +22°C° 0.1 mm 1 mps 723 mmHg 78%
07:00 +24°C° 0 mm 2 mps 723 mmHg 73%
08:00 +25°C° 0 mm 2 mps 723 mmHg 68%
09:00 +27°C° 0 mm 3 mps 724 mmHg 63%
10:00 +27°C° 0.4 mm 3 mps 723 mmHg 66%
11:00 +27°C° 0.4 mm 4 mps 723 mmHg 69%
12:00 +27°C° 0.4 mm 4 mps 723 mmHg 72%
13:00 +26°C° 1.1 mm 4 mps 723 mmHg 77%
14:00 +25°C° 1.1 mm 3 mps 723 mmHg 81%
15:00 +24°C° 1.1 mm 3 mps 723 mmHg 86%
16:00 +22°C° 0.6 mm 3 mps 723 mmHg 88%
17:00 +21°C° 0.6 mm 2 mps 723 mmHg 90%
18:00 +20°C° 0.6 mm 2 mps 724 mmHg 92%
19:00 +20°C° 0.4 mm 1 mps 724 mmHg 93%
20:00 +20°C° 0.4 mm 1 mps 725 mmHg 94%
21:00 +19°C° 0.4 mm 1 mps 725 mmHg 94%
22:00 +18°C° 0.3 mm 1 mps 725 mmHg 94%
23:00 +18°C° 0.3 mm 1 mps 725 mmHg 94%

Day after tomorrow, 11 July, Saturday

Time Temperature Precipitation Wind Pressure Humidity
00:00 +18°C° 0.3 mm 1 mps 725 mmHg 94%
01:00 +18°C° 0.2 mm 1 mps 725 mmHg 95%
02:00 +16°C° 0.2 mm 1 mps 725 mmHg 95%
03:00 +16°C° 0.2 mm 1 mps 725 mmHg 95%
04:00 +16°C° 0.4 mm 1 mps 726 mmHg 94%
05:00 +18°C° 0.4 mm 1 mps 726 mmHg 94%
06:00 +18°C° 0.4 mm 1 mps 726 mmHg 93%
07:00 +19°C° 0.2 mm 1 mps 726 mmHg 88%
08:00 +20°C° 0.2 mm 1 mps 727 mmHg 82%
09:00 +20°C° 0.2 mm 2 mps 727 mmHg 77%
10:00 +20°C° 0.2 mm 2 mps 727 mmHg 72%
11:00 +21°C° 0.2 mm 2 mps 727 mmHg 66%
12:00 +22°C° 0.2 mm 3 mps 727 mmHg 61%
13:00 +22°C° 0.2 mm 3 mps 727 mmHg 61%
14:00 +22°C° 0.2 mm 3 mps 728 mmHg 61%
15:00 +22°C° 0.2 mm 4 mps 728 mmHg 61%
16:00 +21°C° 0.1 mm 3 mps 728 mmHg 65%
17:00 +20°C° 0.1 mm 3 mps 728 mmHg 68%
18:00 +19°C° 0.1 mm 3 mps 728 mmHg 71%
19:00 +17°C° 0 mm 3 mps 728 mmHg 74%
20:00 +16°C° 0 mm 2 mps 728 mmHg 76%
21:00 +14°C° 0 mm 2 mps 728 mmHg 79%
22:00 +14°C° 0 mm 2 mps 728 mmHg 82%
23:00 +14°C° 0 mm 2 mps 728 mmHg 84%

12 July, Sunday

Time Temperature Precipitation Wind Pressure Humidity
00:00 +12°C° 0 mm 3 mps 728 mmHg 87%
01:00 +12°C° 0 mm 3 mps 728 mmHg 89%
02:00 +12°C° 0 mm 3 mps 728 mmHg 90%
03:00 +11°C° 0 mm 3 mps 728 mmHg 92%
04:00 +12°C° 0 mm 3 mps 728 mmHg 87%
05:00 +13°C° 0 mm 3 mps 728 mmHg 83%
06:00 +14°C° 0 mm 4 mps 728 mmHg 78%
07:00 +17°C° 0 mm 4 mps 728 mmHg 71%
08:00 +18°C° 0 mm 4 mps 728 mmHg 63%
09:00 +20°C° 0 mm 5 mps 728 mmHg 56%
10:00 +21°C° 0 mm 5 mps 728 mmHg 54%
11:00 +22°C° 0 mm 5 mps 728 mmHg 51%
12:00 +23°C° 0 mm 5 mps 728 mmHg 49%
13:00 +23°C° 0 mm 4 mps 728 mmHg 49%
14:00 +23°C° 0 mm 4 mps 728 mmHg 50%
15:00 +25°C° 0 mm 4 mps 728 mmHg 50%
16:00 +23°C° 0 mm 4 mps 728 mmHg 56%
17:00 +21°C° 0 mm 4 mps 728 mmHg 62%
18:00 +20°C° 0 mm 3 mps 728 mmHg 68%
19:00 +19°C° 0 mm 3 mps 728 mmHg 73%
20:00 +17°C° 0 mm 3 mps 728 mmHg 78%
21:00 +14°C° 0 mm 3 mps 728 mmHg 84%
22:00 +14°C° 0 mm 3 mps 728 mmHg 85%
23:00 +14°C° 0 mm 2 mps 728 mmHg 87%

13 July, Monday

Time Temperature Precipitation Wind Pressure Humidity
00:00 +13°C° 0 mm 2 mps 727 mmHg 88%
01:00 +13°C° 0 mm 2 mps 727 mmHg 89%
02:00 +13°C° 0 mm 1 mps 727 mmHg 90%
03:00 +12°C° 0 mm 1 mps 727 mmHg 90%
04:00 +13°C° 0 mm 1 mps 727 mmHg 87%
05:00 +14°C° 0 mm 1 mps 727 mmHg 83%
06:00 +15°C° 0 mm 1 mps 727 mmHg 80%
07:00 +18°C° 0 mm 1 mps 727 mmHg 74%
08:00 +19°C° 0 mm 2 mps 727 mmHg 68%
09:00 +21°C° 0 mm 2 mps 727 mmHg 63%
10:00 +23°C° 0 mm 2 mps 727 mmHg 59%
11:00 +24°C° 0 mm 2 mps 727 mmHg 56%
12:00 +26°C° 0 mm 2 mps 727 mmHg 52%
13:00 +26°C° 0 mm 2 mps 726 mmHg 51%
14:00 +26°C° 0 mm 2 mps 726 mmHg 50%
15:00 +26°C° 0 mm 2 mps 726 mmHg 49%
16:00 +25°C° 0 mm 2 mps 726 mmHg 56%
17:00 +24°C° 0 mm 1 mps 725 mmHg 63%
18:00 +23°C° 0 mm 1 mps 725 mmHg 70%
19:00 +21°C° 0 mm 1 mps 725 mmHg 75%
20:00 +19°C° 0 mm 1 mps 725 mmHg 79%
21:00 +16°C° 0 mm 1 mps 725 mmHg 84%
22:00 +16°C° 0 mm 1 mps 725 mmHg 86%
23:00 +15°C° 0 mm 1 mps 724 mmHg 88%

14 July, Tuesday

Time Temperature Precipitation Wind Pressure Humidity
00:00 +15°C° 0 mm 1 mps 724 mmHg 90%
01:00 +15°C° 0 mm 1 mps 724 mmHg 90%
02:00 +14°C° 0 mm 1 mps 724 mmHg 90%
03:00 +14°C° 0 mm 1 mps 723 mmHg 90%
04:00 +15°C° 0 mm 1 mps 723 mmHg 87%
05:00 +16°C° 0 mm 1 mps 724 mmHg 85%
06:00 +18°C° 0 mm 1 mps 724 mmHg 82%
07:00 +21°C° 0 mm 1 mps 724 mmHg 74%
08:00 +23°C° 0 mm 1 mps 724 mmHg 66%
09:00 +25°C° 0 mm 1 mps 724 mmHg 57%
10:00 +26°C° 0 mm 1 mps 723 mmHg 55%
11:00 +27°C° 0 mm 1 mps 723 mmHg 53%
12:00 +28°C° 0 mm 1 mps 723 mmHg 50%
13:00 +27°C° 0.2 mm 2 mps 723 mmHg 55%
14:00 +27°C° 0.2 mm 2 mps 723 mmHg 60%
15:00 +27°C° 0.2 mm 2 mps 722 mmHg 65%
16:00 +26°C° 0.3 mm 1 mps 722 mmHg 71%
17:00 +25°C° 0.3 mm 1 mps 722 mmHg 77%
18:00 +24°C° 0.3 mm 1 mps 722 mmHg 83%
19:00 +22°C° 0 mm 1 mps 723 mmHg 84%
20:00 +21°C° 0 mm 1 mps 723 mmHg 85%
21:00 +20°C° 0 mm 1 mps 723 mmHg 86%
22:00 +19°C° 0.3 mm 1 mps 723 mmHg 88%
23:00 +19°C° 0.3 mm 1 mps 723 mmHg 89%
Show more